Weather History for KMCK - November, 2010

Change the Weather History Date:

Friday, November 26, 2010

  Actual Average Record
Temperature  
Mean Temperature 33 °F 33 °F  
Max Temperature 52 °F 47 °F 76 °F (1960)
Min Temperature 13 °F 20 °F -3 °F (1975)
Degree Days  
Heating Degree Days 32    
Moisture  
Dew Point 11 °F    
Average Humidity 46    
Maximum Humidity 68    
Minimum Humidity 22    
Precipitation  
Precipitation 0.00 in 0.03 in - ()
Month to date precipitation 0.34 0.85  
Year to date precipitation 21.64 21.79  
Sea Level Pressure  
Sea Level Pressure 30.19 in    
Wind  
Wind Speed 11 mph (West)    
Max Wind Speed 20 mph    
Max Gust Speed 28 mph    
Visibility 10 miles    
Events      
T = Trace of Precipitation, MM = Missing Value Source: NWS Daily Summary

Daily Weather History Graph

Daily Weather History Graph

Search for Another Location

Airport or City:

Trip Planner

Search our weather history database for the weather conditions in past years. The results will help you decide how hot, cold, wet, or windy it might be!

Date:

Astronomy

Nov. 26, 2010 Rise Set
Actual Time 7:40 AM CST 5:18 PM CST
Civil Twilight 7:10 AM CST 5:48 PM CST
Nautical Twilight 6:37 AM CST 6:22 PM CST
Astronomical Twilight 6:04 AM CST 6:54 PM CST
Moon 10:29 PM CST (11/26) 11:48 AM CST (11/26)
Length of Visible Light 10h 38m
Length of Day
9h 38m
Waning Gibbous, 73% of the Moon is Illuminated
Nov 26
Waning Gibbous
Nov 28
Last Quarter
Dec 5
New
Dec 13
First Quarter
Dec 21
Full

Hourly Weather History & Observations

Time (CST) Temp. Windchill Dew Point Humidity Pressure Visibility Wind Dir Wind Speed Gust Speed Precip Events Conditions
12:53 AM 14.0 °F 2.9 °F 5.0 °F 67% 30.19 in 10.0 mi WSW 8.1 mph - N/A   Clear
1:53 AM 17.1 °F 8.7 °F 3.9 °F 56% 30.17 in 10.0 mi West 5.8 mph - N/A   Clear
2:53 AM 21.9 °F 8.7 °F 5.0 °F 48% 30.16 in 10.0 mi West 15.0 mph - N/A   Clear
3:53 AM 23.0 °F 10.6 °F 5.0 °F 46% 30.15 in 10.0 mi West 13.8 mph - N/A   Clear
4:53 AM 25.0 °F 12.2 °F 5.0 °F 43% 30.15 in 10.0 mi West 16.1 mph - N/A   Clear
5:53 AM 21.9 °F 13.4 °F 6.1 °F 51% 30.19 in 10.0 mi West 6.9 mph - N/A   Clear
6:53 AM 21.0 °F 12.4 °F 7.0 °F 55% 30.21 in 10.0 mi West 6.9 mph - N/A   Clear
7:53 AM 17.1 °F 3.6 °F 8.1 °F 68% 30.25 in 10.0 mi WSW 12.7 mph - N/A   Clear
8:53 AM 23.0 °F 12.4 °F 9.0 °F 55% 30.25 in 10.0 mi West 10.4 mph - N/A   Clear
9:53 AM 30.0 °F 20.5 °F 12.0 °F 47% 30.26 in 10.0 mi West 11.5 mph - N/A   Clear
10:53 AM 37.0 °F 29.8 °F 14.0 °F 39% 30.25 in 10.0 mi West 10.4 mph - N/A   Clear
11:53 AM 46.9 °F - 14.0 °F 27% 30.21 in 10.0 mi WNW 18.4 mph 23.0 mph N/A   Clear
12:53 PM 48.9 °F - 12.9 °F 24% 30.19 in 10.0 mi NW 17.3 mph - N/A   Clear
1:53 PM 51.1 °F - 14.0 °F 23% 30.16 in 10.0 mi WNW 18.4 mph 24.2 mph N/A   Clear
2:53 PM 51.1 °F - 12.9 °F 22% 30.13 in 10.0 mi NW 19.6 mph 27.6 mph N/A   Clear
3:53 PM 50.0 °F - 15.1 °F 25% 30.14 in 10.0 mi WNW 16.1 mph - N/A   Clear
4:53 PM 46.9 °F - 15.1 °F 28% 30.15 in 10.0 mi NW 11.5 mph - N/A   Clear
5:53 PM 39.9 °F 35.1 °F 14.0 °F 35% 30.16 in 10.0 mi WNW 6.9 mph - N/A   Clear
6:53 PM 34.0 °F 26.6 °F 14.0 °F 44% 30.19 in 10.0 mi WNW 9.2 mph - N/A   Clear
7:53 PM 28.9 °F 21.1 °F 12.9 °F 51% 30.21 in 10.0 mi West 8.1 mph - N/A   Clear
8:53 PM 27.0 °F 18.0 °F 14.0 °F 58% 30.21 in 10.0 mi West 9.2 mph - N/A   Clear
9:53 PM 24.1 °F 15.2 °F 14.0 °F 65% 30.21 in 10.0 mi WSW 8.1 mph - N/A   Clear
10:53 PM 25.0 °F 14.8 °F 15.1 °F 66% 30.20 in 10.0 mi West 10.4 mph - N/A   Clear
11:53 PM 26.1 °F 15.6 °F 16.0 °F 66% 30.19 in 10.0 mi West 11.5 mph - N/A   Clear